User: anonymous   Login
Location: Bangkok
(13.7500°N, 100.5170°E)
Time: 00:01:23
(UTC+07:00)
Language:

Cosmos 1898 Rocket - Orbit

View from above orbital plane
View from above orbital plane
View from above satellite
View from above satellite

Ground track
Ground track

The orbit data is extracted from the following two-line orbital elements,

1 18586U 87098B   17019.51217109  .00000194  00000-0  74654-4 0  9998
2 18586  74.0048 209.1002 0021913 299.3888 124.6546 14.36759397526016
Epoch (UTC): 19 January 2017 12:17:31
Eccentricity: 0.0021913
inclination: 74.0048°
perigee height: 753 km
apogee height: 785 km
right ascension of ascending node: 209.1002°
argument of perigee: 299.3888°
revolutions per day: 14.36759397
mean anomaly at epoch: 124.6546°
orbit number at epoch: 52601

The dashed part of the orbit path shows where the satellite is in the earth's shadow,  

DLR